STARLINK-35515

Last updated on Tue Dec 16 2025 00:02:05 GMT+0000 (Coordinated Universal Time)

1 66488U 25263D 25349.32929491 .00050418 00000+0 85897-3 0 9999 2 66488 42.9987 110.0150 0000955 268.8681 91.2070 15.50603352 5968
UTC large
Height (km)
Speed (km/s)
/
Latitude / Longitude
Inclination (degrees)
Orbital Period (minutes)
Azimuth
Elevation
Range (km)
Doppler Factor

Next 0 passes for location: London (51.5072 / 0.1276)

Sorry there are no passes over London.